TimeEDT,TemperatureF,Dew PointF,Humidity,Sea Level PressureIn,VisibilityMPH,Wind Direction,Wind SpeedMPH,Gust SpeedMPH,PrecipitationIn,Events,Conditions,WindDirDegrees,DateUTC
12:15 AM,44.6,42.8,93,29.83,5.0,East,16.1,20.7,0.03,Rain,Heavy Rain,80,2013-04-11 04:15:00
12:35 AM,44.6,42.8,93,29.85,5.0,East,12.7,-,0.04,Rain,Light Rain,80,2013-04-11 04:35:00
12:55 AM,44.6,42.8,93,29.79,3.0,East,19.6,25.3,0.15,Rain,Heavy Rain,80,2013-04-11 04:55:00
1:15 AM,44.6,42.8,93,29.80,7.0,East,16.1,23.0,N/A,Rain,Light Rain,90,2013-04-11 05:15:00
1:55 AM,44.6,42.8,93,29.79,7.0,East,12.7,19.6,0.01,Rain,Light Rain,80,2013-04-11 05:55:00
2:15 AM,44.6,42.8,93,29.76,7.0,East,21.9,31.1,0.01,Rain,Rain,90,2013-04-11 06:15:00
2:35 AM,42.8,42.8,100,29.81,7.0,East,13.8,21.9,0.04,Rain,Rain,90,2013-04-11 06:35:00
2:55 AM,44.6,42.8,93,29.88,1.8,North,5.8,26.5,0.23,,Unknown,350,2013-04-11 06:55:00
3:15 AM,42.8,42.8,100,29.82,7.0,ENE,9.2,-,0.04,Rain,Rain,70,2013-04-11 07:15:00
3:35 AM,42.8,42.8,100,29.79,10.0,ENE,10.4,-,0.06,Rain,Light Rain,70,2013-04-11 07:35:00
3:55 AM,42.8,42.8,100,29.80,10.0,East,8.1,-,0.06,Rain,Light Rain,100,2013-04-11 07:55:00
4:15 AM,42.8,41.0,93,29.82,10.0,ESE,9.2,-,0.01,Rain,Light Rain,110,2013-04-11 08:15:00
4:35 AM,42.8,41.0,93,29.80,10.0,East,11.5,-,0.03,Rain,Light Rain,100,2013-04-11 08:35:00
4:55 AM,42.8,41.0,93,29.76,7.0,East,12.7,23.0,0.04,Rain,Light Rain,100,2013-04-11 08:55:00
5:15 AM,42.8,41.0,93,29.78,10.0,East,9.2,-,N/A,,Overcast,90,2013-04-11 09:15:00
5:35 AM,42.8,41.0,93,29.77,10.0,East,10.4,-,N/A,,Overcast,80,2013-04-11 09:35:00
5:55 AM,42.8,41.0,93,29.78,10.0,ESE,8.1,-,N/A,,Overcast,110,2013-04-11 09:55:00
6:15 AM,42.8,41.0,93,29.76,10.0,East,11.5,-,N/A,,Overcast,90,2013-04-11 10:15:00
6:35 AM,42.8,41.0,93,29.77,10.0,ESE,11.5,16.1,N/A,,Overcast,110,2013-04-11 10:35:00
6:55 AM,42.8,41.0,93,29.78,10.0,ESE,13.8,-,N/A,,Overcast,110,2013-04-11 10:55:00
7:15 AM,42.8,41.0,93,29.76,10.0,East,12.7,-,N/A,,Overcast,100,2013-04-11 11:15:00
7:35 AM,42.8,41.0,93,29.75,10.0,East,11.5,18.4,N/A,,Overcast,100,2013-04-11 11:35:00
7:55 AM,42.8,41.0,93,29.75,7.0,East,11.5,18.4,N/A,,Overcast,100,2013-04-11 11:55:00
8:15 AM,42.8,41.0,93,29.77,10.0,ESE,12.7,18.4,N/A,,Overcast,110,2013-04-11 12:15:00
8:35 AM,42.8,41.0,93,29.75,10.0,East,10.4,17.3,N/A,,Overcast,90,2013-04-11 12:35:00
8:55 AM,42.8,41.0,93,29.76,7.0,East,12.7,17.3,N/A,,Overcast,100,2013-04-11 12:55:00
9:35 AM,42.8,41.0,93,29.74,5.0,East,15.0,19.6,N/A,,Overcast,100,2013-04-11 13:35:00
9:55 AM,42.8,41.0,93,29.74,5.0,East,16.1,20.7,N/A,,Overcast,100,2013-04-11 13:55:00
10:15 AM,42.8,41.0,93,29.73,5.0,East,12.7,20.7,N/A,,Light Drizzle,100,2013-04-11 14:15:00
10:35 AM,42.8,41.0,93,29.73,4.0,East,18.4,23.0,N/A,Rain,Light Rain,100,2013-04-11 14:35:00
10:55 AM,42.8,41.0,93,29.73,4.0,East,15.0,19.6,N/A,,Overcast,100,2013-04-11 14:55:00
11:15 AM,42.8,41.0,93,29.72,4.0,East,15.0,21.9,N/A,Rain,Light Rain,100,2013-04-11 15:15:00
11:35 AM,42.8,42.8,100,29.72,5.0,East,16.1,-,N/A,,Overcast,100,2013-04-11 15:35:00
11:55 AM,42.8,42.8,100,29.72,5.0,ESE,15.0,-,N/A,,Overcast,110,2013-04-11 15:55:00
12:15 PM,42.8,42.8,100,29.73,5.0,ESE,12.7,21.9,N/A,,Overcast,110,2013-04-11 16:15:00
12:35 PM,42.8,42.8,100,29.73,5.0,East,15.0,21.9,N/A,,Overcast,100,2013-04-11 16:35:00
12:55 PM,42.8,42.8,100,29.73,4.0,East,15.0,21.9,N/A,,Overcast,100,2013-04-11 16:55:00
1:15 PM,42.8,42.8,100,29.72,3.0,ESE,17.3,23.0,N/A,,Light Drizzle,110,2013-04-11 17:15:00
1:35 PM,42.8,42.8,100,29.71,3.0,East,10.4,-,0.01,,Drizzle,100,2013-04-11 17:35:00
1:55 PM,42.8,42.8,100,29.69,4.0,East,15.0,19.6,0.01,,Overcast,100,2013-04-11 17:55:00
2:15 PM,42.8,42.8,100,29.68,1.2,East,16.1,24.2,N/A,Rain,Light Rain,100,2013-04-11 18:15:00
2:35 PM,42.8,42.8,100,29.67,1.2,East,15.0,23.0,0.01,Rain,Light Rain,100,2013-04-11 18:35:00
2:55 PM,42.8,42.8,100,29.67,3.0,ESE,13.8,20.7,0.01,,Overcast,110,2013-04-11 18:55:00
3:15 PM,42.8,42.8,100,29.68,2.5,ESE,11.5,20.7,N/A,,Heavy Drizzle,110,2013-04-11 19:15:00
3:35 PM,42.8,42.8,100,29.68,4.0,ESE,17.3,20.7,N/A,Rain,Light Rain,110,2013-04-11 19:35:00
3:55 PM,42.8,42.8,100,29.67,1.5,ESE,16.1,23.0,N/A,,Overcast,110,2013-04-11 19:55:00
4:15 PM,42.8,42.8,100,29.66,1.0,ESE,17.3,23.0,N/A,,Overcast,110,2013-04-11 20:15:00
4:35 PM,42.8,42.8,100,29.65,1.0,East,13.8,20.7,N/A,,Overcast,100,2013-04-11 20:35:00
4:55 PM,42.8,42.8,100,29.64,0.8,ESE,13.8,20.7,N/A,Rain,Light Rain,110,2013-04-11 20:55:00
5:15 PM,42.8,42.8,100,29.64,1.0,ESE,16.1,23.0,N/A,Rain,Light Rain,110,2013-04-11 21:15:00
5:35 PM,42.8,42.8,100,29.65,1.5,ESE,13.8,-,0.01,Rain,Light Rain,110,2013-04-11 21:35:00
5:55 PM,42.8,42.8,100,29.64,2.0,ESE,11.5,17.3,0.03,Rain,Light Rain,110,2013-04-11 21:55:00
6:15 PM,42.8,42.8,100,29.65,3.0,ESE,9.2,-,0.02,Rain,Rain,110,2013-04-11 22:15:00
6:35 PM,42.8,41.0,93,29.63,4.0,East,10.4,-,0.06,Rain,Rain,100,2013-04-11 22:35:00
6:55 PM,41.0,41.0,100,29.61,5.0,East,15.0,21.9,0.07,Rain,Light Rain,100,2013-04-11 22:55:00
7:15 PM,41.0,41.0,100,29.61,7.0,East,13.8,24.2,0.01,Rain,Rain,100,2013-04-11 23:15:00
7:35 PM,41.0,41.0,100,29.62,7.0,ESE,9.2,-,0.02,Rain,Light Rain,110,2013-04-11 23:35:00
7:55 PM,41.0,41.0,100,29.63,10.0,Calm,Calm,-,0.02,Rain,Light Rain,0,2013-04-11 23:55:00
8:15 PM,41.0,41.0,100,29.64,10.0,East,8.1,-,N/A,Rain,Light Rain,100,2013-04-12 00:15:00
8:35 PM,41.0,41.0,100,29.63,5.0,East,6.9,-,0.06,Rain,Heavy Rain,90,2013-04-12 00:35:00
8:55 PM,41.0,39.2,93,29.60,5.0,East,9.2,-,0.10,Rain,Light Rain,90,2013-04-12 00:55:00
9:15 PM,41.0,39.2,93,29.61,5.0,East,8.1,-,0.01,Rain,Light Rain,100,2013-04-12 01:15:00
9:35 PM,41.0,39.2,93,29.60,5.0,East,8.1,-,0.04,Rain,Heavy Rain,100,2013-04-12 01:35:00
9:55 PM,39.2,39.2,100,29.60,4.0,East,8.1,-,0.05,,Drizzle,100,2013-04-12 01:55:00
10:15 PM,39.2,39.2,100,29.59,5.0,East,9.2,-,N/A,,Drizzle,100,2013-04-12 02:15:00
10:35 PM,39.2,37.4,93,29.59,4.0,East,8.1,-,0.01,,Heavy Drizzle,90,2013-04-12 02:35:00
10:55 PM,39.2,37.4,93,29.59,5.0,East,6.9,-,0.01,Rain,Rain,90,2013-04-12 02:55:00
11:15 PM,39.2,37.4,93,29.58,5.0,East,6.9,-,N/A,,Drizzle,80,2013-04-12 03:15:00
11:35 PM,39.2,37.4,93,29.59,5.0,East,4.6,-,N/A,Rain,Light Rain,100,2013-04-12 03:35:00
11:55 PM,39.2,37.4,93,29.60,5.0,ESE,3.5,-,N/A,Rain,Light Rain,110,2013-04-12 03:55:00